Погода в Гожане

Россия / Пермский край     56°31′26″N   55°12′02″E
темп.,
°C
ветер,
м/с
пор.,
м/с
влажн.,
%
обл.,
%
осадки,
мм/ч
давл.,
гПа
погр.,
м
15 мая, сб
сб1523:00+19ю346127 0.0 102148
02:00+18ю336391 0.0 102130
05:00+16ююз36654 0.0 102092
08:00+19юз496225 0.0 1021267
11:00+24юз46525 0.0 1021562
14:00+27юз674066 0.0 10201105
17:00+28юз5840100 0.0 10201270
20:00+23ююз41058100 0.0 1019204
16 мая, вс
вс1623:00+19юз31261100 0.0 1019193
02:00+18ююз3461100 0.0 101953
05:00+16ююз3361100 0.0 102039
08:00+20ююз375977 0.0 1020197
11:00+25ююз57425 0.0 1020565
14:00+28юз68335 0.0 10191915
17:00+28ююз68361 0.0 10182618
20:00+24ююз49545 0.0 1018168
17 мая, пн
пн1723:00+20ююз34586 0.0 101849
02:00+18юз225921 0.0 101815
05:00+16юз236281 0.0 101824
08:00+20зюз2563100 0.0 1019171
11:00+25зюз574791 0.0 1019601
14:00+27зюз6835100 0.0 10181523
17:00+28зюз59365 0.0 10172632
20:00+24зюз37555 0.0 1017127
18 мая, вт
вт1823:00+20зсз225952 0.0 101825
02:00+17зсз126041 0.0 101811
05:00+16сз1170100 0.3 101911
08:00+20юз11649 0.0 1019110
11:00+25зюз235249 0.0 1018605
14:00+28зюз37377 0.0 10172630
17:00+29зюз463578 0.0 10162428
20:00+24з235377 0.0 101638
19 мая, ср
ср1923:00+20с1150100 0.0 101711
02:00+18св22646 0.0 101716
05:00+15всв348231 0.0 101865
08:00+19в47725 0.0 1018227
11:00+24вюв56533 0.0 1018756
14:00+27вюв44445 0.0 10181683
17:00+28вюв34381 0.0 10172337
20:00+24вюв47570 0.0 1017126